Project,Study,Ord_Occ,Event_Num,Cast_ID,Date_Time_UTC,Date_Time_PST,Lat_Dec,Lon_Dec,Sta_ID,Line,Sta,Depth,Pressure,PrQ,Temp1,Temp1Q,Temp2,Temp2Q,TempAve,Salt1,Salt1Q,Salt1_Corr,Salt2,Salt2Q,Salt2_Corr,SaltAve_Corr,Ox1,Ox1Q,Ox1_CruiseCorr,Ox1_StaCorr,Ox2,Ox2Q,Ox2_CruiseCorr,Ox2_StaCorr,OxAve_StaCorr,Ox1uM,Ox1uM_CruiseCorr,Ox1uM_StaCorr,Ox2uM,Ox2uM_CruiseCorr,Ox2uM_StaCorr,OxAveuM_StaCorr,FluorV,FluorQ,EstChl_CruiseCorr,EstChl_StaCorr,ISUSV,ISUSQ,EstNO3_CruiseCorr,EstNO3_StaCorr,SigThetaTS1,SigThetaTS1Q,SigThetaTS2,SigThetaTS2Q,BAT,XMiss,TransQ,pH,pHQ,SPAR,SPARQ,PAR,PARQ,PoT1,PoT2,DynHt,SVA,OxSat1,OxSat2,BTL_Depth,BTL_Temp,SaltB,OxB,OxBuM,Chl-a,Phaeo,NO3,NO2,NH4,PO4,SIL
CalCOFI,2007SR,056,58,2007_056d,23-Jul-2020 23:36:28,23-Jul-2020 15:36:28,34.15008,-121.14866,080.0 060.0,080.0,060.0,2.000,2.014,,16.6785,,16.6787,,16.6786,33.5171,,33.5173,33.5176,,33.5192,33.5183,5.8135,,6.0568,5.9238,4.2505,,6.2060,4.7347,5.3293,253.434,264.0717,226.9193,185.294,454.3186,171.0302,198.9748,0.1004,,0.7561,0.4426,-99.0,,-99.0,-99.0,24.4516,,24.4519,,0.8704,80.4445,,8.173,,1.1129E+03,,3.1630E+01,,16.6781,16.6784,0.0015,,104.594,76.473,2,16.550,33.5035,6.035,263.48,0.542,0.125,0.69,0.026,0.00,0.26,1.00
CalCOFI,2007SR,056,58,2007_056d,23-Jul-2020 23:36:34,23-Jul-2020 15:36:34,34.15008,-121.14866,080.0 060.0,080.0,060.0,3.000,3.022,,16.6807,,16.6810,,16.6809,33.5177,,33.5179,33.5180,,33.5196,33.5188,5.8105,,6.0537,5.9207,4.2651,,6.2409,4.7676,5.3442,253.303,263.9349,226.8056,185.932,453.9982,172.1319,199.4688,0.1024,,0.7796,0.4497,-99.0,,-99.0,-99.0,24.4516,,24.4517,,0.8702,80.4483,,8.173,,1.1140E+03,,2.6528E+01,,16.6802,16.6806,0.0057,,104.545,76.739,,,,,,,,,,,,
CalCOFI,2007SR,056,58,2007_056d,23-Jul-2020 23:36:37,23-Jul-2020 15:36:37,34.15008,-121.14866,080.0 060.0,080.0,060.0,4.000,4.029,,16.6813,,16.6818,,16.6816,33.5177,,33.5179,33.5182,,33.5198,33.5189,5.7978,,6.0404,5.9077,4.2704,,6.2535,4.7796,5.3437,252.750,263.3576,226.3257,186.166,452.6456,172.5360,199.4309,0.1029,,0.7855,0.4515,-99.0,,-99.0,-99.0,24.4515,,24.4517,,0.8697,80.4584,,8.174,,1.1168E+03,,2.2957E+01,,16.6807,16.6812,0.0091,,104.317,76.837,,,,,,,,,,,,
CalCOFI,2007SR,056,58,2007_056d,23-Jul-2020 23:36:39,23-Jul-2020 15:36:39,34.15008,-121.14866,080.0 060.0,080.0,060.0,5.000,5.036,,16.6735,,16.6690,,16.6713,33.5157,,33.5159,33.5148,,33.5164,33.5162,5.7809,,6.0228,5.8904,4.2780,,6.2717,4.7967,5.3436,252.014,262.5893,225.6870,186.495,450.8455,173.1042,199.3956,0.1038,,0.7961,0.4546,-99.0,,-99.0,-99.0,24.4518,,24.4522,,0.8669,80.5159,,8.174,,1.1127E+03,,2.0094E+01,,16.6727,16.6682,0.0126,,103.997,76.952,,,,,,,,,,,,
CalCOFI,2007SR,056,58,2007_056d,23-Jul-2020 23:36:41,23-Jul-2020 15:36:41,34.15008,-121.14866,080.0 060.0,080.0,060.0,6.000,6.043,,16.6302,,16.6286,,16.6294,33.5072,,33.5074,33.5072,,33.5088,33.5081,5.7778,,6.0195,5.8873,4.2853,,6.2891,4.8131,5.3502,251.876,262.4453,225.5672,186.813,450.5079,173.6533,199.6103,0.1082,,0.8479,0.4688,-99.0,,-99.0,-99.0,24.4554,,24.4558,,0.8515,80.8252,,8.173,,1.1143E+03,,1.7416E+01,,16.6292,16.6276,0.0161,,103.847,77.020,,,,,,,,,,,,
CalCOFI,2007SR,056,58,2007_056d,23-Jul-2020 23:36:43,23-Jul-2020 15:36:43,34.15009,-121.14866,080.0 060.0,080.0,060.0,7.000,7.051,,16.5988,,16.5968,,16.5978,33.5026,,33.5028,33.5022,,33.5038,33.5033,5.7797,,6.0215,5.8892,4.2914,,6.3037,4.8269,5.3581,251.957,262.5298,225.6375,187.080,450.7061,174.1144,199.8760,0.1073,,0.8373,0.4660,-99.0,,-99.0,-99.0,24.4591,,24.4593,,0.8427,81.0048,,8.171,,1.1217E+03,,1.5192E+01,,16.5977,16.5957,0.0196,,103.815,77.080,,,,,,,,,,,,
CalCOFI,2007SR,056,58,2007_056d,23-Jul-2020 23:36:45,23-Jul-2020 15:36:45,34.15008,-121.14866,080.0 060.0,080.0,060.0,8.000,8.058,,16.5781,,16.5771,,16.5776,33.4993,,33.4995,33.4996,,33.5012,33.5004,5.7516,,5.9921,5.8604,4.2969,,6.3168,4.8392,5.3498,250.733,261.2521,224.5753,187.316,447.7123,174.5219,199.5486,0.1104,,0.8739,0.4753,-99.0,,-99.0,-99.0,24.4614,,24.4619,,0.8384,81.0902,,8.169,,1.1168E+03,,1.3443E+01,,16.5768,16.5758,0.0231,,103.267,77.147,,,,,,,,,,,,
CalCOFI,2007SR,056,58,2007_056d,23-Jul-2020 23:36:48,23-Jul-2020 15:36:48,34.15008,-121.14866,080.0 060.0,080.0,060.0,9.000,9.065,,16.5360,,16.5310,,16.5335,33.4907,,33.4909,33.4903,,33.4919,33.4914,5.7400,,5.9800,5.8486,4.3024,,6.3299,4.8516,5.3501,250.226,260.7228,224.1354,187.558,446.4723,174.9398,199.5376,0.1079,,0.8444,0.4678,-99.0,,-99.0,-99.0,24.4646,,24.4655,,0.8348,81.1635,,8.165,,1.1148E+03,,1.1984E+01,,16.5346,16.5296,0.0266,,102.969,77.174,,,,,,,,,,,,
CalCOFI,2007SR,056,58,2007_056d,23-Jul-2020 23:36:50,23-Jul-2020 15:36:50,34.15009,-121.14866,080.0 060.0,080.0,060.0,10.000,10.072,,16.4795,,16.4760,,16.4778,33.4832,,33.4834,33.4831,,33.4847,33.4841,5.7381,,5.9780,5.8466,4.3075,,6.3421,4.8631,5.3549,250.141,260.6341,224.0616,187.777,446.2644,175.3180,199.6898,0.1076,,0.8409,0.4669,-99.0,,-99.0,-99.0,24.4720,,24.4727,,0.8143,81.5814,,8.162,,1.1232E+03,,1.0696E+01,,16.4779,16.4744,0.0301,,102.817,77.178,10,16.462,33.4792,5.921,258.50,,,0.93,0.029,0.00,0.31,0.96
CalCOFI,2007SR,056,58,2007_056d,23-Jul-2020 23:36:51,23-Jul-2020 15:36:51,34.15009,-121.14866,080.0 060.0,080.0,060.0,11.000,11.079,,16.4615,,16.4612,,16.4614,33.4800,,33.4802,33.4804,,33.4820,33.4811,5.7153,,5.9542,5.8233,4.3127,,6.3545,4.8748,5.3491,249.146,259.5954,223.1982,188.003,443.8307,175.7083,199.4533,0.1049,,0.8091,0.4583,-99.0,,-99.0,-99.0,24.4736,,24.4741,,0.8051,81.7699,,8.156,,1.1187E+03,,9.8002E+00,,16.4598,16.4594,0.0336,,102.371,77.247,,,,,,,,,,,,
CalCOFI,2007SR,056,58,2007_056d,23-Jul-2020 23:36:54,23-Jul-2020 15:36:54,34.15008,-121.14866,080.0 060.0,080.0,060.0,12.000,12.087,,16.4343,,16.4317,,16.4330,33.4739,,33.4741,33.4740,,33.4756,33.4749,5.6885,,5.9262,5.7958,4.3149,,6.3598,4.8798,5.3378,247.977,258.3751,222.1837,188.100,440.9715,175.8758,199.0298,0.1048,,0.8079,0.4579,-99.0,,-99.0,-99.0,24.4753,,24.4760,,0.7959,81.9567,,8.155,,1.1146E+03,,8.8974E+00,,16.4324,16.4298,0.0370,,101.833,77.240,,,,,,,,,,,,
CalCOFI,2007SR,056,58,2007_056d,23-Jul-2020 23:36:56,23-Jul-2020 15:36:56,34.15008,-121.14866,080.0 060.0,080.0,060.0,13.000,13.094,,16.3834,,16.3767,,16.3801,33.4645,,33.4647,33.4638,,33.4654,33.4651,5.6824,,5.9198,5.7896,4.3201,,6.3722,4.8915,5.3406,247.712,258.0985,221.9537,188.326,440.3234,176.2661,199.1099,0.0997,,0.7478,0.4400,-99.0,,-99.0,-99.0,24.4798,,24.4808,,0.7786,82.3130,,8.151,,1.1249E+03,,8.1684E+00,,16.3814,16.3747,0.0405,,101.618,77.246,,,,,,,,,,,,
CalCOFI,2007SR,056,58,2007_056d,23-Jul-2020 23:36:58,23-Jul-2020 15:36:58,34.15008,-121.14866,080.0 060.0,080.0,060.0,14.000,14.101,,16.3335,,16.3315,,16.3325,33.4557,,33.4559,33.4555,,33.4571,33.4565,5.6904,,5.9282,5.7978,4.3218,,6.3762,4.8953,5.3466,248.058,258.4596,222.2540,188.398,441.1697,176.3904,199.3222,0.0988,,0.7372,0.4366,-99.0,,-99.0,-99.0,24.4845,,24.4848,,0.7682,82.5256,,8.147,,1.1256E+03,,7.5515E+00,,16.3313,16.3293,0.0440,,101.656,77.204,,,,,,,,,,,,
CalCOFI,2007SR,056,58,2007_056d,23-Jul-2020 23:36:59,23-Jul-2020 15:36:59,34.15008,-121.14866,080.0 060.0,080.0,060.0,15.000,15.109,,16.3175,,16.3178,,16.3177,33.4549,,33.4551,33.4555,,33.4571,33.4561,5.6885,,5.9262,5.7958,4.3228,,6.3786,4.8976,5.3467,247.977,258.3751,222.1837,188.443,440.9715,176.4681,199.3259,0.1002,,0.7537,0.4418,-99.0,,-99.0,-99.0,24.4876,,24.4880,,0.7666,82.5605,,8.146,,1.1174E+03,,6.9602E+00,,16.3152,16.3155,0.0475,,101.591,77.202,,,,,,,,,,,,
CalCOFI,2007SR,056,58,2007_056d,23-Jul-2020 23:37:02,23-Jul-2020 15:37:02,34.15008,-121.14866,080.0 060.0,080.0,060.0,16.000,16.116,,16.3077,,16.3064,,16.3071,33.4576,,33.4578,33.4590,,33.4606,33.4592,5.7165,,5.9555,5.8245,4.3206,,6.3734,4.8926,5.3586,249.196,259.6476,223.2415,188.344,443.9530,176.2972,199.7694,0.1079,,0.8444,0.4678,-99.0,,-99.0,-99.0,24.4920,,24.4933,,0.7680,82.5314,,8.143,,1.1188E+03,,6.4343E+00,,16.3051,16.3038,0.0509,,102.073,77.146,,,,,,,,,,,,
CalCOFI,2007SR,056,58,2007_056d,23-Jul-2020 23:37:04,23-Jul-2020 15:37:04,34.15009,-121.14866,080.0 060.0,080.0,060.0,17.000,17.123,,16.2813,,16.2813,,16.2813,33.4689,,33.4691,33.4695,,33.4711,33.4701,5.7557,,5.9964,5.8646,4.3230,,6.3791,4.8980,5.3813,250.900,261.4264,224.7203,188.445,448.1208,176.4716,200.5960,0.1165,,0.9458,0.4915,-99.0,,-99.0,-99.0,24.5067,,24.5072,,0.7862,82.1555,,8.145,,1.1274E+03,,5.9764E+00,,16.2786,16.2786,0.0544,,102.726,77.156,,,,,,,,,,,,
CalCOFI,2007SR,056,58,2007_056d,23-Jul-2020 23:37:06,23-Jul-2020 15:37:06,34.15010,-121.14866,080.0 060.0,080.0,060.0,18.000,18.130,,16.2714,,16.2717,,16.2716,33.4792,,33.4794,33.4799,,33.4815,33.4805,5.7527,,5.9933,5.8616,4.3205,,6.3731,4.8924,5.3770,250.768,261.2886,224.6057,188.337,447.7979,176.2851,200.4454,0.1266,,1.0649,0.5121,5.5201E-08,,0.0000,-99.0,24.5170,,24.5174,,0.8033,81.8053,,8.147,,1.1269E+03,,5.5494E+00,,16.2685,16.2689,0.0578,,102.660,77.103,,,,,,,,,,,,
CalCOFI,2007SR,056,58,2007_056d,23-Jul-2020 23:37:07,23-Jul-2020 15:37:07,34.15010,-121.14866,080.0 060.0,080.0,060.0,19.000,19.138,,16.2727,,16.2731,,16.2729,33.4830,,33.4832,33.4837,,33.4853,33.4843,5.7862,,6.0283,5.8959,4.3222,,6.3772,4.8962,5.3961,252.227,262.8117,225.8718,188.410,451.3664,176.4111,201.1415,0.1376,,1.1946,0.5256,3.0735E-08,,0.0000,-99.0,24.5196,,24.5200,,0.8133,81.6021,,8.150,,1.1215E+03,,5.1848E+00,,16.2696,16.2701,0.0613,,103.263,77.137,,,,,,,,,,,,
CalCOFI,2007SR,056,58,2007_056d,23-Jul-2020 23:37:10,23-Jul-2020 15:37:10,34.15008,-121.14866,080.0 060.0,080.0,060.0,20.000,20.145,,16.2820,,16.2833,,16.2827,33.4899,,33.4901,33.4917,,33.4933,33.4917,5.8167,,6.0602,5.9271,4.3249,,6.3836,4.9023,5.4147,253.557,264.2001,227.0260,188.524,454.6194,176.6080,201.8170,0.1488,,1.3268,0.5298,-99.0,,-99.0,-99.0,24.5228,,24.5238,,0.8408,81.0427,,8.155,,1.1234E+03,,4.8214E+00,,16.2788,16.2802,0.0647,,103.831,77.203,,,,,,,,,,,,
CalCOFI,2007SR,056,58,2007_056d,23-Jul-2020 23:37:12,23-Jul-2020 15:37:12,34.15010,-121.14866,080.0 060.0,080.0,060.0,21.000,21.152,,16.2910,,16.2921,,16.2916,33.5033,,33.5035,33.5043,,33.5059,33.5047,5.7432,,5.9834,5.8518,4.3317,,6.3999,4.9176,5.3847,250.349,260.8512,224.2421,188.823,446.7731,177.1244,200.6833,0.1680,,1.5537,0.5146,-99.0,,-99.0,-99.0,24.5311,,24.5316,,0.8574,80.7075,,8.162,,1.1260E+03,,4.4138E+00,,16.2876,16.2888,0.0681,,102.544,77.345,21,15.820,33.5247,5.955,259.97,,,1.76,0.045,0.00,0.35,1.59
CalCOFI,2007SR,056,58,2007_056d,23-Jul-2020 23:37:14,23-Jul-2020 15:37:14,34.15010,-121.14866,080.0 060.0,080.0,060.0,22.000,22.160,,16.2226,,16.2212,,16.2219,33.5135,,33.5137,33.5163,,33.5179,33.5158,5.7224,,5.9616,5.8305,4.3417,,6.4237,4.9401,5.3853,249.437,259.8992,223.4507,189.254,444.5425,177.8686,200.6597,0.1543,,1.3918,0.5283,-99.0,,-99.0,-99.0,24.5546,,24.5571,,0.8132,81.6048,,8.160,,1.1218E+03,,4.0736E+00,,16.2191,16.2177,0.0715,,102.043,77.422,,,,,,,,,,,,
CalCOFI,2007SR,056,58,2007_056d,23-Jul-2020 23:37:16,23-Jul-2020 15:37:16,34.15010,-121.14866,080.0 060.0,080.0,060.0,23.000,23.167,,16.1377,,16.1366,,16.1372,33.5206,,33.5208,33.5251,,33.5267,33.5238,5.7001,,5.9383,5.8077,4.3528,,6.4502,4.9651,5.3864,248.459,258.8783,222.6020,189.732,442.1504,178.6941,200.6481,0.1370,,1.1875,0.5251,-99.0,,-99.0,-99.0,24.5795,,24.5831,,0.7769,82.3478,,8.152,,1.1207E+03,,3.7115E+00,,16.1340,16.1330,0.0749,,101.481,77.495,,,,,,,,,,,,
CalCOFI,2007SR,056,58,2007_056d,23-Jul-2020 23:37:18,23-Jul-2020 15:37:18,34.15010,-121.14867,080.0 060.0,080.0,060.0,24.000,24.174,,16.1036,,16.1016,,16.1026,33.5255,,33.5257,33.5269,,33.5285,33.5271,5.6400,,5.8755,5.7462,4.3642,,6.4775,4.9908,5.3685,245.839,256.1432,220.3284,190.225,435.7423,179.5455,199.9370,0.1329,,1.1392,0.5209,-99.0,,-99.0,-99.0,24.5909,,24.5925,,0.7697,82.4956,,8.147,,1.1248E+03,,3.4407E+00,,16.0998,16.0978,0.0783,,100.348,77.645,,,,,,,,,,,,
CalCOFI,2007SR,056,58,2007_056d,23-Jul-2020 23:37:20,23-Jul-2020 15:37:20,34.15010,-121.14868,080.0 060.0,080.0,060.0,25.000,25.181,,15.9964,,15.9820,,15.9892,33.5490,,33.5492,33.5508,,33.5524,33.5508,5.6110,,5.8452,5.7165,4.3832,,6.5228,5.0336,5.3751,244.562,254.8102,219.2202,191.044,432.6189,180.9598,200.0900,0.1282,,1.0837,0.5146,-99.0,,-99.0,-99.0,24.6334,,24.6380,,0.7628,82.6384,,8.141,,1.1229E+03,,3.2356E+00,,15.9925,15.9781,0.0817,,99.636,77.812,,,,,,,,,,,,
CalCOFI,2007SR,056,58,2007_056d,23-Jul-2020 23:37:22,23-Jul-2020 15:37:22,34.15010,-121.14867,080.0 060.0,080.0,060.0,26.000,26.189,,15.6808,,15.6604,,15.6706,33.5833,,33.5835,33.5869,,33.5885,33.5860,5.6390,,5.8745,5.7452,4.4166,,6.6025,5.1088,5.4270,245.759,256.0597,220.2589,192.485,435.5466,183.4482,201.8536,0.1418,,1.2442,0.5283,-99.0,,-99.0,-99.0,24.7307,,24.7381,,0.7678,82.5350,,8.137,,1.1185E+03,,3.0199E+00,,15.6767,15.6564,0.0849,,99.535,77.929,,,,,,,,,,,,
CalCOFI,2007SR,056,58,2007_056d,23-Jul-2020 23:37:24,23-Jul-2020 15:37:24,34.15010,-121.14866,080.0 060.0,080.0,060.0,27.000,27.196,,15.3776,,15.3658,,15.3717,33.5393,,33.5395,33.5429,,33.5445,33.5420,5.6199,,5.8545,5.7256,4.4505,,6.6835,5.1852,5.4554,244.918,255.1818,219.5291,193.956,433.4897,185.9885,202.7588,0.1535,,1.3823,0.5287,-99.0,,-99.0,-99.0,24.7641,,24.7695,,0.7639,82.6160,,8.136,,1.1162E+03,,2.8144E+00,,15.3734,15.3617,0.0882,,98.578,78.050,,,,,,,,,,,,
CalCOFI,2007SR,056,58,2007_056d,23-Jul-2020 23:37:26,23-Jul-2020 15:37:26,34.15010,-121.14868,080.0 060.0,080.0,060.0,28.000,28.204,,14.9776,,14.8436,,14.9106,33.4705,,33.4707,33.4875,,33.4891,33.4799,5.6645,,5.9011,5.7713,4.4978,,6.7964,5.2917,5.5315,246.853,257.2017,221.2083,196.001,438.2224,189.5199,205.3641,0.1571,,1.4249,0.5267,-99.0,,-99.0,-99.0,24.7985,,24.8406,,0.7594,82.7086,,8.132,,1.1208E+03,,2.6370E+00,,14.9734,14.8394,0.0913,,98.530,78.036,,,,,,,,,,,,
CalCOFI,2007SR,056,58,2007_056d,23-Jul-2020 23:37:28,23-Jul-2020 15:37:28,34.15010,-121.14868,080.0 060.0,080.0,060.0,29.000,29.211,,14.4555,,14.4211,,14.4383,33.4011,,33.4013,33.3995,,33.4011,33.4012,5.6991,,5.9373,5.8067,4.5322,,6.8785,5.3692,5.5880,248.347,258.7613,222.5048,197.497,441.8765,192.1034,207.3041,0.1594,,1.4520,0.5249,-99.0,,-99.0,-99.0,24.8571,,24.8631,,0.7596,82.7043,,8.129,,1.1193E+03,,2.4807E+00,,14.4513,14.4169,0.0945,,98.060,77.928,,,,,,,,,,,,
CalCOFI,2007SR,056,58,2007_056d,23-Jul-2020 23:37:30,23-Jul-2020 15:37:30,34.15010,-121.14868,080.0 060.0,080.0,060.0,30.000,30.218,,14.3568,,14.3463,,14.3516,33.3939,,33.3941,33.3979,,33.3995,33.3968,5.6342,,5.8695,5.7403,4.5510,,6.9234,5.4115,5.5759,245.518,255.8081,220.0498,198.316,434.9572,193.5177,206.7838,0.1570,,1.4237,0.5267,-99.0,,-99.0,-99.0,24.8724,,24.8777,,0.7586,82.7243,,8.125,,1.1147E+03,,2.3327E+00,,14.3524,14.3420,0.0976,,96.748,78.133,,,,,,,,,,,,
CalCOFI,2007SR,056,58,2007_056d,23-Jul-2020 23:37:32,23-Jul-2020 15:37:32,34.15010,-121.14868,080.0 060.0,080.0,060.0,31.000,31.226,,14.0559,,14.0006,,14.0283,33.3520,,33.3522,33.3532,,33.3548,33.3535,5.6058,,5.8398,5.7112,4.5906,,7.0179,5.5007,5.6060,244.271,254.5064,218.9677,200.033,431.9072,196.4827,207.7252,0.1607,,1.4674,0.5237,-99.0,,-99.0,-99.0,24.9029,,24.9153,,0.7498,82.9063,,8.122,,1.1144E+03,,2.2006E+00,,14.0515,13.9962,0.1007,,95.650,78.241,31,12.795,33.2705,,253.99,0.521,0.298,5.61,0.122,0.73,0.71,4.14
CalCOFI,2007SR,056,58,2007_056d,23-Jul-2020 23:37:34,23-Jul-2020 15:37:34,34.15010,-121.14868,080.0 060.0,080.0,060.0,32.000,32.233,,13.6287,,13.6213,,13.6250,33.2981,,33.2983,33.3011,,33.3027,33.3005,5.6143,,5.8487,5.7199,4.6266,,7.1039,5.5818,5.6509,244.630,254.8812,219.2792,201.594,432.7853,199.1784,209.2288,0.1562,,1.4142,0.5273,-99.0,,-99.0,-99.0,24.9493,,24.9531,,0.7422,83.0652,,8.118,,1.1170E+03,,2.0774E+00,,13.6242,13.6168,0.1037,,94.934,78.223,,,,,,,,,,,,
CalCOFI,2007SR,056,58,2007_056d,23-Jul-2020 23:37:36,23-Jul-2020 15:37:36,34.15010,-121.14868,080.0 060.0,080.0,060.0,33.000,33.240,,13.2935,,13.3000,,13.2968,33.2729,,33.2731,33.2766,,33.2782,33.2757,5.6140,,5.8484,5.7196,4.6545,,7.1705,5.6447,5.6822,244.607,254.8571,219.2592,202.800,432.7290,201.2610,210.2601,0.1545,,1.3941,0.5282,6.3319E-08,,0.0000,-99.0,24.9976,,24.9991,,0.7348,83.2194,,8.114,,1.1164E+03,,1.9718E+00,,13.2890,13.2955,0.1067,,94.266,78.166,,,,,,,,,,,,
CalCOFI,2007SR,056,58,2007_056d,23-Jul-2020 23:37:38,23-Jul-2020 15:37:38,34.15010,-121.14868,080.0 060.0,080.0,060.0,34.000,34.248,,13.0313,,13.0169,,13.0241,33.2622,,33.2624,33.2701,,33.2717,33.2671,5.5869,,5.8201,5.6918,4.6783,,7.2273,5.6983,5.6951,243.416,253.6139,218.2257,203.828,429.8160,203.0363,210.6310,0.1497,,1.3375,0.5297,3.4197E-07,,0.0000,-99.0,25.0415,,25.0505,,0.7276,83.3683,,8.106,,1.1109E+03,,1.8454E+00,,13.0267,13.0123,0.1097,,93.300,78.107,,,,,,,,,,,,
CalCOFI,2007SR,056,58,2007_056d,23-Jul-2020 23:37:40,23-Jul-2020 15:37:40,34.15010,-121.14868,080.0 060.0,080.0,060.0,35.000,35.255,,12.8413,,12.8262,,12.8338,33.2481,,33.2483,33.2509,,33.2525,33.2504,5.5058,,5.7353,5.6088,4.6946,,7.2662,5.7350,5.6719,239.875,249.9174,215.1528,204.530,421.1552,204.2486,209.7007,0.1426,,1.2536,0.5286,-99.0,,-99.0,-99.0,25.0681,,25.0732,,0.7393,83.1284,,8.098,,1.1069E+03,,1.7106E+00,,12.8366,12.8215,0.1126,,91.576,78.060,,,,,,,,,,,,
CalCOFI,2007SR,056,58,2007_056d,23-Jul-2020 23:37:43,23-Jul-2020 15:37:43,34.15010,-121.14868,080.0 060.0,080.0,060.0,36.000,36.262,,12.5993,,12.5745,,12.5869,33.2470,,33.2472,33.2491,,33.2507,33.2490,5.3995,,5.6242,5.5000,4.7131,,7.3104,5.7766,5.6383,235.233,245.0716,211.1245,205.327,409.8015,205.6249,208.3747,0.1369,,1.1864,0.5250,-99.0,,-99.0,-99.0,25.1144,,25.1208,,0.7178,83.5739,,8.089,,1.1088E+03,,1.5976E+00,,12.5945,12.5697,0.1155,,89.358,77.958,,,,,,,,,,,,
CalCOFI,2007SR,056,58,2007_056d,23-Jul-2020 23:37:44,23-Jul-2020 15:37:44,34.15010,-121.14868,080.0 060.0,080.0,060.0,37.000,37.270,,12.4222,,12.4320,,12.4271,33.2526,,33.2528,33.2547,,33.2563,33.2546,5.3256,,5.5470,5.4243,4.7229,,7.3338,5.7987,5.6115,232.007,241.7040,208.3250,205.752,401.9112,206.3588,207.3419,0.1334,,1.1451,0.5215,-99.0,,-99.0,-99.0,25.1529,,25.1526,,0.7149,83.6340,,8.081,,1.1109E+03,,1.5199E+00,,12.4173,12.4271,0.1184,,87.814,77.893,,,,,,,,,,,,
CalCOFI,2007SR,056,58,2007_056d,23-Jul-2020 23:37:46,23-Jul-2020 15:37:46,34.15010,-121.14868,080.0 060.0,080.0,060.0,38.000,38.277,,12.2132,,12.2269,,12.2201,33.2640,,33.2642,33.2652,,33.2668,33.2655,5.2770,,5.4962,5.3746,4.7338,,7.3598,5.8233,5.5990,229.876,239.4795,206.4757,206.215,396.6991,207.1584,206.8171,0.1353,,1.1675,0.5235,-99.0,,-99.0,-99.0,25.2016,,25.1999,,0.7114,83.7074,,8.071,,1.1083E+03,,1.4450E+00,,12.2083,12.2220,0.1212,,86.639,77.744,,,,,,,,,,,,
CalCOFI,2007SR,056,58,2007_056d,23-Jul-2020 23:37:48,23-Jul-2020 15:37:48,34.15010,-121.14868,080.0 060.0,080.0,060.0,39.000,39.284,,12.0667,,12.0542,,12.0605,33.2789,,33.2791,33.2882,,33.2898,33.2845,5.1850,,5.4001,5.2804,4.7377,,7.3691,5.8320,5.5562,225.863,235.2903,202.9932,206.374,386.8838,207.4329,205.2131,0.1212,,1.0012,0.5020,-99.0,,-99.0,-99.0,25.2409,,25.2505,,0.7022,83.8990,,8.055,,1.1024E+03,,1.3443E+00,,12.0617,12.0492,0.1239,,84.877,77.538,,,,,,,,,,,,
CalCOFI,2007SR,056,58,2007_056d,23-Jul-2020 23:37:51,23-Jul-2020 15:37:51,34.15010,-121.14869,080.0 060.0,080.0,060.0,40.000,40.292,,11.7900,,11.7802,,11.7851,33.2975,,33.2977,33.2997,,33.3013,33.2995,5.1932,,5.4087,5.2888,4.7397,,7.3739,5.8365,5.5627,226.204,235.6463,203.2891,206.452,387.7179,207.5676,205.4284,0.1251,,1.0472,0.5095,-99.0,,-99.0,-99.0,25.3072,,25.3107,,0.7015,83.9141,,8.042,,1.1039E+03,,1.2315E+00,,11.7849,11.7751,0.1267,,84.526,77.131,,,,,,,,,,,,
CalCOFI,2007SR,056,58,2007_056d,23-Jul-2020 23:37:52,23-Jul-2020 15:37:52,34.15010,-121.14870,080.0 060.0,080.0,060.0,41.000,41.299,,11.7513,,11.7516,,11.7515,33.3008,,33.3010,33.3038,,33.3054,33.3032,5.1945,,5.4100,5.2901,4.7233,,7.3347,5.7996,5.5449,226.260,235.7047,203.3377,205.732,387.8548,206.3243,204.8310,0.1153,,0.9316,0.4885,-99.0,,-99.0,-99.0,25.3169,,25.3192,,0.6990,83.9674,,8.035,,1.1037E+03,,1.1643E+00,,11.7462,11.7464,0.1293,,84.481,76.818,41,11.649,,, ,,,,,,,
CalCOFI,2007SR,056,58,2007_056d,23-Jul-2020 23:37:54,23-Jul-2020 15:37:54,34.15010,-121.14870,080.0 060.0,080.0,060.0,42.000,42.307,,11.7434,,11.7430,,11.7432,33.3021,,33.3023,33.3048,,33.3064,33.3044,5.1915,,5.4069,5.2870,4.7079,,7.2980,5.7649,5.5260,226.125,235.5638,203.2206,205.063,387.5247,205.1690,204.1948,0.1156,,0.9352,0.4893,-99.0,,-99.0,-99.0,25.3194,,25.3216,,0.7021,83.9024,,8.029,,1.1020E+03,,1.1001E+00,,11.7381,11.7377,0.1320,,84.418,76.555,,,,,,,,,,,,
CalCOFI,2007SR,056,58,2007_056d,23-Jul-2020 23:37:56,23-Jul-2020 15:37:56,34.15010,-121.14870,080.0 060.0,080.0,060.0,43.000,43.314,,11.7345,,11.7344,,11.7345,33.3030,,33.3032,33.3057,,33.3073,33.3053,5.1852,,5.4003,5.2806,4.6880,,7.2505,5.7201,5.5004,225.852,235.2788,202.9837,204.194,386.8569,203.6683,203.3260,0.1159,,0.9387,0.4900,-99.0,,-99.0,-99.0,25.3218,,25.3239,,0.6998,83.9501,,8.025,,1.1025E+03,,1.0307E+00,,11.7291,11.7290,0.1347,,84.301,76.218,,,,,,,,,,,,
CalCOFI,2007SR,056,58,2007_056d,23-Jul-2020 23:37:58,23-Jul-2020 15:37:58,34.15010,-121.14870,080.0 060.0,080.0,060.0,44.000,44.322,,11.7331,,11.7308,,11.7320,33.3046,,33.3048,33.3072,,33.3088,33.3068,5.1709,,5.3854,5.2659,4.6700,,7.2075,5.6796,5.4728,225.230,234.6295,202.4439,203.411,385.3356,202.3162,202.3801,0.1200,,0.9870,0.4995,-99.0,,-99.0,-99.0,25.3233,,25.3258,,0.6988,83.9708,,8.021,,1.0961E+03,,9.4539E-01,,11.7276,11.7252,0.1373,,84.067,75.920,,,,,,,,,,,,
CalCOFI,2007SR,056,58,2007_056d,23-Jul-2020 23:38:00,23-Jul-2020 15:38:00,34.15010,-121.14870,080.0 060.0,080.0,060.0,45.000,45.329,,11.7194,,11.7181,,11.7188,33.3043,,33.3045,33.3068,,33.3084,33.3065,5.1663,,5.3806,5.2612,4.6515,,7.1633,5.6379,5.4496,225.027,234.4176,202.2677,202.605,384.8391,200.9243,201.5960,0.1180,,0.9634,0.4951,-99.0,,-99.0,-99.0,25.3256,,25.3279,,0.6988,83.9720,,8.019,,1.0975E+03,,8.7049E-01,,11.7137,11.7124,0.1400,,83.967,75.599,,,,,,,,,,,,
CalCOFI,2007SR,056,58,2007_056d,23-Jul-2020 23:38:02,23-Jul-2020 15:38:02,34.15010,-121.14870,080.0 060.0,080.0,060.0,46.000,46.336,,11.7148,,11.7158,,11.7153,33.3051,,33.3053,33.3075,,33.3091,33.3072,5.1628,,5.3769,5.2577,4.6398,,7.1354,5.6115,5.4346,224.875,234.2589,202.1358,202.094,384.4673,200.0419,201.0889,0.1223,,1.0141,0.5043,-99.0,,-99.0,-99.0,25.3272,,25.3289,,0.6991,83.9642,,8.016,,1.1046E+03,,8.1530E-01,,11.7090,11.7100,0.1427,,83.902,75.406,,,,,,,,,,,,
CalCOFI,2007SR,056,58,2007_056d,23-Jul-2020 23:38:04,23-Jul-2020 15:38:04,34.15010,-121.14870,080.0 060.0,080.0,060.0,47.000,47.344,,11.7135,,11.7147,,11.7141,33.3048,,33.3050,33.3070,,33.3086,33.3068,5.1593,,5.3733,5.2541,4.6299,,7.1118,5.5892,5.4217,224.724,234.1013,202.0048,201.662,384.0980,199.2959,200.6504,0.1250,,1.0460,0.5093,-99.0,,-99.0,-99.0,25.3272,,25.3287,,0.6985,83.9777,,8.015,,1.0983E+03,,7.7623E-01,,11.7076,11.7088,0.1454,,83.843,75.242,,,,,,,,,,,,
CalCOFI,2007SR,056,58,2007_056d,23-Jul-2020 23:38:06,23-Jul-2020 15:38:06,34.15010,-121.14870,080.0 060.0,080.0,060.0,48.000,48.351,,11.7056,,11.7059,,11.7058,33.3054,,33.3056,33.3083,,33.3099,33.3078,5.1462,,5.3596,5.2407,4.6175,,7.0822,5.5613,5.4010,224.152,233.5042,201.5084,201.125,382.6990,198.3685,199.9385,0.1168,,0.9493,0.4922,-99.0,,-99.0,-99.0,25.3291,,25.3313,,0.6967,84.0134,,8.012,,1.0888E+03,,7.3318E-01,,11.6995,11.6999,0.1480,,83.617,75.029,,,,,,,,,,,,
CalCOFI,2007SR,056,58,2007_056d,23-Jul-2020 23:38:08,23-Jul-2020 15:38:08,34.15010,-121.14870,080.0 060.0,080.0,060.0,49.000,49.359,,11.6909,,11.6894,,11.6902,33.3074,,33.3076,33.3100,,33.3116,33.3096,5.1201,,5.3323,5.2139,4.6039,,7.0497,5.5307,5.3723,223.015,232.3173,200.5217,200.528,379.9180,197.3376,198.9297,0.1152,,0.9304,0.4883,-99.0,,-99.0,-99.0,25.3335,,25.3357,,0.6973,84.0019,,8.012,,1.1004E+03,,6.8223E-01,,11.6847,11.6832,0.1507,,83.168,74.781,,,,,,,,,,,,
CalCOFI,2007SR,056,58,2007_056d,23-Jul-2020 23:38:10,23-Jul-2020 15:38:10,34.15010,-121.14870,080.0 060.0,080.0,060.0,50.000,50.366,,11.6809,,11.6841,,11.6825,33.3096,,33.3098,33.3116,,33.3132,33.3115,5.0971,,5.3083,5.1904,4.5968,,7.0327,5.5147,5.3526,222.009,231.2671,199.6487,200.218,377.4575,196.8022,198.2255,0.1397,,1.2194,0.5271,-99.0,,-99.0,-99.0,25.3370,,25.3380,,0.6961,84.0266,,8.008,,1.1000E+03,,6.4525E-01,,11.6746,11.6778,0.1533,,82.777,74.658,,,,,,,,,,,,